Starlink 31964

operational
NORAD ID: 59895 Int'l Des: 2024-100 Owner: SPXS Country: US Constellation: starlink
LEOCIRCULAR

Starlink 31964について

説明を読み込み中...

リアルタイム位置

3D地球を読み込み中...

次回通過

高度履歴

Altitude vs Time

uPlot chart will show altitude changes over time

軌道要素

1 59895U 24100L 25260.04165120 .00000816 00000-0 39173-4 0 9999
2 59895 42.9998 25.7245 0001327 270.2853 89.7847 15.27581282 74559
Epoch: Sep 17, 2025 • Age: 26 hours

現在のステータス

高度 482.5 km
速度 7.63 km/s
衛星直下点 14.68°N, 144.19°E
打ち上げ日 May 28, 2024
運用期間 1.3 years
タイプ internet

技術仕様

分類 Payload
質量 730.00 kg
乾燥質量 700.00 kg
総質量 730.00 kg
長さ 0.30 m
直径 4.10 m
スパン 29.00 m
形状 Box + pan
製造者 SPXS
バスタイプ Starlink V2M
フェーズステータス In Orbit
所有者/国 SPXS/US

大規模コンステレーション

Loading constellations...